星链-37268(STARLINK-37268)

导读

STARLINK-37268(NORAD编号68747)是SpaceX星链(Starlink)低轨卫星互联网星座中的一颗卫星,属于星链第二代卫星组网任务的组成部分,旨在为全球提供高速宽带互联网服务。它运行在近地轨道,采用SpaceX设计的卫星平台,具备自动脱轨能力以减少太空垃圾,支持星座扩展与网络扩容,服务偏远地区网络覆盖及全球宽带连接。目前该卫星已成功入轨,参与星链星座的运营服务,支撑SpaceX构建全球卫星互联网的战略布局。

Basic Information
目录编号:
68747
目录名称:
STARLINK-37268
国际标识:
2026-082V
轨道中心:
EARTH
卫星名称:
星链-37268
卫星全名:
星链-37268(STARLINK-37268)
卫星状态:
在轨 (已飞行143 天)
发射日期:
2026-04-15 UTC
国别 :
美国 (US)
星等 :
--
Orbit Information
数据来源 国际轨道数据
星历时间: 2026-09-05T12:36:40+0800
8小时前
查看轨道信息
半长轴: 6843.71km
偏心率: 0.0002612
轨道倾角: 97.285°
近地点辐角 93.078°
升交点赤经 110.622°
平近点角 267.076°
近地点: 463.785km
远地点: 467.361km
周期: 93.907分钟
每日圈数: 15.334351
Detailed Information
固有亮度:
5
最大亮度:
2.5
卫星平台:
Starlink V1.0
覆盖范围:
全球
运营商:
太空探索技术公司
运营商所在国:
美国
制造商(研发单位):
太空探索技术公司
制造商所在国:
美国
使用方式:
暂无
Satellite Introduction
Starlink 计划是 SpaceX 推出的全球卫星互联网项目,通过发射低轨道卫星,为全球尤其是偏远地区提供高速、低延迟的互联网服务。自 2019 年起,Starlink 已部署数千颗卫星,旨在缩小全球数字鸿沟,推动互联网普及。该项目还为军事、航空等行业提供通信支持,带来广泛经济效益。
2D Orbit Map
3D Orbit Map
Orbit Altitude Analysis Chart
Orbit Inclination Analysis Chart
Orbit Comprehensive Analysis Chart
View Comprehensive Chart
Conjunction Data List
Event ID Objects TCA Miss Dist (km) Collision Risk Probability Collision Risk Index (CRI) Action
CDM_260903-153804-704106-874725
2026-09-03T
15:38:04+0000
2.438 km
极远距离
1.857076E-6 低风险 0.4
CDM_260906-001805-250106-874721
2026-09-06T
00:18:44+0000
2.941 km
极远距离
1.35903E-6 低风险 0.38